IRIDIUM 167 (43931 NORAD) Tracking and Keplerian Element Data

This shows tracking and keplerian element data for the satellite.

Feedback or suggestion? Click here.




ElementValue
Catalog43931
NameIRIDIUM 167
Epoch Orbit134
Epoch Day20.86555025
Epoch Year2019
RAAN43.6997
Inclination86.4924
Eccentricity0.0002433
Argument of Perigee64.9378
Mean Anonmoly295.208
Mean Motion14.5106059
Decay Rate-5.7E-07
L11 43931U 19002K 19020.86555025 -.00000057 00000-0 -19805-4 0 9991
L22 43931 86.4924 43.6997 0002433 64.9378 295.2080 14.51060590 1347

Live tracking and technical data element details for IRIDIUM 167 (NORAD 43931). IRIDIUM 167 can be tracked NOW for your location showing map with azimuth and elevation plus other details from your city location.

Track the satellite on the map from your city or location and see movement details for azimuth, elevation, latitude, longitude, range, height, and movement on the map or in text.







IsCatalogInMostPopularTable: catalog: 43931, numindb: 14
Update: records affected: 1



GetName: 43931 IRIDIUM 167

Hit Count: updated at: Wed, 23 Jan 2019 03:34:24 GMT